EW7354 Weather Reports


time (UTC)temp
C
wind
direction
speed
KPH
gust
KPH
rain 1hr
cm
rain 24hr
cm
rain mn
cm
humidity
%
barometer
mb
20260502150104 17 293 0.0 1.6 0.00 0.00 0.00 28 1016.7
20260502123036 6 292 0.0 1.6 0.00 0.00 0.00 56 1016.5
20260502121530 5 293 0.0 0.0 0.00 0.00 0.00 57 1016.4
20260502114527 6 293 0.0 1.6 0.00 0.00 0.00 55 1016.3
20260502113026 6 292 0.0 0.0 0.00 0.00 0.00 55 1016.4
20260502111522 6 293 0.0 0.0 0.00 0.00 0.00 55 1016.4
20260502110024 6 293 0.0 1.6 0.00 0.00 0.00 54 1016.5
20260502104520 6 293 0.0 0.0 0.00 0.00 0.00 53 1016.4
20260502103018 6 292 0.0 1.6 0.00 0.00 0.00 48 1016.3
20260502101516 7 292 0.0 0.0 0.00 0.00 0.00 48 1016.1
20260502091513 6 293 0.0 0.0 0.00 0.00 0.00 53 1015.9
20260502071502 8 111 0.0 1.6 0.00 0.00 0.00 41 1016.0
20260502070100 7 113 0.0 0.0 0.00 0.00 0.00 44 1016.0
20260502064602 7 111 0.0 0.0 0.00 0.00 0.00 45 1016.0
20260502063057 8 113 0.0 0.0 0.00 0.00 0.00 50 1015.8
20260502061554 8 111 0.0 0.0 0.00 0.00 0.00 49 1015.8
20260502060055 8 113 0.0 0.0 0.00 0.00 0.00 48 1015.7
20260502054550 8 113 0.0 0.0 0.00 0.00 0.00 50 1015.7
20260502053108 9 110 0.0 1.6 0.00 0.00 0.00 48 1015.6
20260502051551 9 111 0.0 1.6 0.00 0.00 0.00 49 1015.7
20260502050054 9 111 0.0 0.0 0.00 0.00 0.00 48 1015.5
20260502044549 9 112 0.0 1.6 0.00 0.00 0.00 47 1015.5
20260502043058 10 111 0.0 0.0 0.00 0.00 0.00 46 1015.4
20260502041549 10 111 0.0 0.0 0.00 0.00 0.00 45 1015.4
20260502040048 10 112 0.0 0.0 0.00 0.00 0.00 44 1015.3
20260502034547 10 111 0.0 0.0 0.00 0.00 0.00 42 1015.1
20260502033050 11 111 0.0 0.0 0.00 0.00 0.00 40 1014.9
20260502031550 11 112 0.0 0.0 0.00 0.00 0.00 38 1014.7
20260502030055 12 111 0.0 0.0 0.00 0.00 0.00 34 1014.5
20260502024546 13 112 0.0 1.6 0.00 0.00 0.00 31 1014.3
20260502023104 15 111 0.0 1.6 0.00 0.00 0.00 30 1014.3
20260502021546 15 56 0.0 4.8 0.00 0.00 0.00 27 1014.0
20260502020048 16 129 0.0 3.2 0.00 0.00 0.00 27 1013.8
20260502014544 17 155 0.0 1.6 0.00 0.00 0.00 28 1013.6
20260502013043 18 113 0.0 3.2 0.00 0.00 0.00 27 1013.4
20260502011549 19 238 0.0 4.8 0.00 0.00 0.00 25 1013.4
20260502010042 20 348 1.6 4.8 0.00 0.00 0.00 25 1013.4
20260502004553 20 144 0.0 6.4 0.00 0.00 0.00 24 1013.4
20260502003042 21 124 1.6 4.8 0.00 0.00 0.00 25 1013.3
20260502001539 21 96 1.6 4.8 0.00 0.00 0.00 23 1013.5
20260502000037 22 144 0.0 4.8 0.00 0.00 0.00 23 1013.6
20260501234536 22 110 1.6 4.8 0.00 0.00 0.00 23 1013.6
20260501233036 22 339 1.6 4.8 0.00 0.00 0.00 22 1013.6
20260501231534 22 68 0.0 4.8 0.00 0.00 0.00 21 1013.6
20260501230036 22 283 1.6 6.4 0.00 0.00 0.00 21 1013.7
20260501224538 22 99 0.0 6.4 0.00 0.00 0.00 22 1013.9
20260501223034 22 338 0.0 6.4 0.00 0.00 0.00 20 1014.1
20260501221528 22 103 0.0 3.2 0.00 0.00 0.00 21 1014.3
20260501220025 22 167 0.0 4.8 0.00 0.00 0.00 21 1014.6
20260501214528 22 160 1.6 4.8 0.00 0.00 0.00 21 1014.7
20260501213024 22 20 1.6 6.4 0.00 0.00 0.00 19 1014.8
20260501211524 22 127 0.0 3.2 0.00 0.00 0.00 19 1014.9
20260501210022 22 200 0.0 6.4 0.00 0.00 0.00 20 1015.0
20260501204520 22 118 0.0 6.4 0.00 0.00 0.00 20 1015.0
20260501203036 21 84 1.6 4.8 0.00 0.00 0.00 23 1015.0
20260501201519 21 79 1.6 4.8 0.00 0.00 0.00 21 1015.0
20260501200018 21 283 0.0 8.0 0.00 0.00 0.00 18 1015.1
20260501194520 20 284 0.0 4.8 0.00 0.00 0.00 21 1015.2
20260501193016 21 236 0.0 3.2 0.00 0.00 0.00 20 1015.3
20260501191514 21 265 0.0 4.8 0.00 0.00 0.00 22 1015.4
20260501190009 20 101 1.6 4.8 0.00 0.00 0.00 23 1015.5
20260501184525 20 70 0.0 4.8 0.00 0.00 0.00 22 1015.7
20260501183007 19 210 1.6 6.4 0.00 0.00 0.00 22 1016.0
20260501181505 18 120 0.0 1.6 0.00 0.00 0.00 22 1016.2
20260501180003 18 313 1.6 6.4 0.00 0.00 0.00 21 1016.4
20260501174559 17 158 1.6 8.0 0.00 0.00 0.00 27 1016.4
20260501173114 17 101 1.6 3.2 0.00 0.00 0.00 27 1016.6
20260501171557 17 118 0.0 1.6 0.00 0.00 0.00 29 1016.7
20260501170053 16 99 0.0 3.2 0.00 0.00 0.00 29 1016.7
20260501164601 15 136 0.0 4.8 0.00 0.00 0.00 30 1016.8
20260501163048 15 165 0.0 4.8 0.00 0.00 0.00 32 1016.8
20260501161548 15 135 0.0 3.2 0.00 0.00 0.00 31 1016.8
20260501160048 14 118 0.0 3.2 0.00 0.00 0.00 32 1016.7
20260501154548 15 129 0.0 3.2 0.00 0.00 0.00 34 1016.8
20260501153041 13 181 0.0 1.6 0.00 0.00 0.00 35 1016.8
20260501151542 13 211 0.0 1.6 0.00 0.00 0.00 35 1016.9